Location: Rehoboth Beach
(38.7438°N, 75.1341°W)
Time: 20:27:59
(UTC-04:00)

Cosmos 1452 Rocket - Visible Passes

Search period start: 02 August 2015 00:00
Search period end: 12 August 2015 00:00
Orbit: 768 x 776 km, 74.1° (Epoch: 01 August)

Date Brightness Start Highest point End Pass type
(mag) Time Alt. Az. Time Alt. Az. Time Alt. Az.
02 Aug 4.8 02:51:22 10° N 02:56:15 38° ENE 02:59:11 21° ESE visible
02 Aug 4.6 04:33:58 10° NW 04:38:14 24° W 04:39:26 22° WSW visible
03 Aug 5.5 02:15:57 10° N 02:20:05 23° ENE 02:22:41 17° E visible
03 Aug 3.9 03:57:29 10° NNW 04:02:28 41° WSW 04:02:56 40° WSW visible
04 Aug 6.0 01:41:01 10° NNE 01:43:48 15° NE 01:46:23 11° E visible
04 Aug 3.4 03:21:20 10° NNW 03:26:38 72° WSW 03:26:39 72° WSW visible
05 Aug 3.7 02:45:26 10° NNW 02:50:30 67° NE 02:50:30 67° NE visible
05 Aug 5.5 04:29:49 10° WNW 04:30:46 12° WNW 04:30:46 12° WNW visible
06 Aug 4.6 02:09:43 10° N 02:14:27 40° ENE 02:14:27 40° ENE visible
06 Aug 5.2 03:52:28 10° NW 03:54:45 19° WNW 03:54:45 19° WNW visible
07 Aug 5.3 01:34:16 10° N 01:38:30 25° ENE 01:38:30 25° ENE visible
07 Aug 4.8 03:15:57 10° NW 03:18:48 28° WNW 03:18:48 28° WNW visible
08 Aug 5.8 00:59:15 10° NNE 01:02:15 16° NE 01:02:39 15° ENE visible
08 Aug 4.6 02:39:45 10° NNW 02:42:56 36° NW 02:42:56 36° NW visible
09 Aug 4.7 02:03:49 10° NNW 02:07:08 39° N 02:07:08 39° N visible
10 Aug 5.1 01:28:05 10° N 01:31:23 32° NNE 01:31:23 32° NNE visible
10 Aug 5.8 03:11:00 10° NW 03:11:41 13° NW 03:11:41 13° NW visible
11 Aug 5.5 00:52:36 10° N 00:55:41 24° NE 00:55:41 24° NE visible
11 Aug 5.5 02:34:23 10° NW 02:35:59 19° NW 02:35:59 19° NW visible
